Wind_Speed
13 12 10 9 9 9 9 9 10 11 13 15 12 11 12 15 16 18 18 17 17 17 17 16 15 14 14 14 13 12 10 8 7 7 9 11 13 14 14 14 14 13 13 12
14 12 12 12 12 11 11 11 10 11 14 15 13 11 13 15 17 18 18 17 17 16 17 16 15 14 14 13 12 12 11 9 7 7 7 9 11 14 14 14 13 14 14 13
15 14 15 14 13 12 12 12 11 13 14 13 13 12 14 17 16 18 19 18 17 18 16 14 14 14 13 13 13 13 11 9 7 6 6 8 10 13 15 14 14 14 15 15
18 17 17 16 15 13 13 13 14 15 13 12 11 13 15 18 17 16 17 18 17 17 15 13 14 14 13 14 13 13 11 8 7 6 6 7 9 10 13 14 14 15 15 14
19 18 18 17 16 15 14 15 15 15 14 12 10 12 14 16 17 15 17 18 18 16 15 15 14 14 13 13 13 13 11 9 7 6 6 7 8 9 11 13 14 15 15 14
21 20 20 18 18 17 16 16 15 13 12 12 10 11 12 16 17 18 20 19 18 17 15 14 14 14 13 13 13 12 11 8 6 6 6 7 8 8 9 11 13 14 14 15
22 22 21 20 19 17 16 15 13 12 12 12 11 11 13 18 19 21 21 20 18 16 16 15 14 14 13 13 12 12 11 8 7 6 5 6 7 8 9 10 12 13 14 15
21 21 20 21 19 17 16 15 13 12 12 13 11 11 13 16 19 20 19 19 18 16 16 15 14 14 13 12 12 12 10 8 6 5 6 6 6 7 9 11 12 13 14 15
17 17 19 21 19 19 17 16 14 16 16 16 13 11 16 19 18 17 18 18 18 16 16 14 13 13 12 11 11 11 9 7 6 6 6 7 8 9 9 11 12 13 14 15
22 19 18 22 21 20 18 16 16 17 17 17 15 15 18 19 18 16 16 18 18 16 15 14 14 12 12 12 11 10 9 8 7 7 7 9 9 10 11 11 12 13 14 15
25 25 20 20 22 18 17 18 19 18 18 16 16 16 18 19 19 18 16 18 19 17 16 15 14 14 13 13 12 11 10 9 8 8 8 8 9 10 12 13 13 14 15 16
27 27 25 22 22 20 18 17 17 19 19 18 16 17 19 16 17 18 17 20 20 18 17 16 15 14 14 14 13 12 11 11 10 9 10 9 10 10 11 12 13 14 15 16
28 29 28 24 21 21 19 18 18 18 18 18 16 17 20 21 20 20 21 21 20 19 18 17 17 16 14 14 13 13 12 12 11 11 11 11 11 11 12 12 14 15 15 16
31 31 29 25 20 19 20 20 19 20 20 19 18 19 23 21 20 20 20 20 20 19 18 18 18 17 16 14 14 14 14 13 13 13 13 13 13 13 13 14 14 15 16 16
34 32 31 28 25 22 18 19 19 20 21 21 20 20 23 24 23 23 22 21 21 20 20 19 18 17 17 17 15 15 15 14 14 14 15 14 15 15 15 15 15 15 15 16
36 35 33 31 29 27 23 21 19 20 20 21 22 23 24 26 25 24 23 24 23 22 22 21 20 19 19 19 18 17 17 17 17 16 16 16 16 16 16 16 17 17 16 17
36 36 36 33 28 28 28 25 24 22 21 21 21 24 27 27 28 28 27 25 24 24 24 23 23 22 20 20 20 19 19 19 18 18 17 17 16 17 18 18 18 19 19 19
37 37 36 34 31 31 29 26 26 26 25 24 26 28 29 32 31 27 25 26 26 26 25 25 24 23 22 21 21 21 21 20 20 20 20 19 19 19 19 19 20 20 20 21
38 38 37 35 33 32 28 27 27 27 27 28 28 31 31 33 33 31 29 28 28 27 26 26 26 25 24 23 22 22 22 22 22 22 22 22 21 21 20 20 20 21 21 22
38 39 39 37 34 30 26 26 27 29 30 32 32 33 34 33 34 33 29 28 28 28 28 27 26 26 25 25 24 24 24 24 24 24 23 23 22 22 21 21 21 21 22 23
40 41 40 39 37 33 31 31 31 32 33 33 33 35 35 34 34 32 31 30 29 28 28 27 27 27 26 26 26 25 25 25 25 24 24 24 23 23 23 23 22 22 22 22
36 37 39 39 38 35 35 36 37 37 36 34 34 35 34 34 34 33 32 32 31 30 29 29 29 28 28 27 27 27 26 26 26 26 26 26 25 24 24 23 22 22 22 22
34 34 34 35 36 39 40 40 41 40 39 37 36 35 35 35 35 34 34 33 32 32 31 31 30 30 29 29 29 29 29 28 28 27 27 27 26 25 24 24 24 24 24 24
35 36 35 35 38 40 41 41 43 42 40 39 37 37 36 36 35 35 34 35 35 35 34 33 32 32 32 31 31 30 30 30 29 29 28 27 26 26 26 26 26 25 25 25
38 37 37 38 39 40 40 40 41 41 41 40 39 38 38 38 37 37 36 36 36 36 35 35 34 34 34 33 33 32 31 31 30 30 29 28 27 27 27 27 27 27 26 26
39 40 39 41 41 42 40 38 38 40 41 40 40 39 38 38 38 38 38 38 38 37 37 36 35 35 35 34 33 33 32 31 31 31 30 29 29 28 28 28 28 27 27 26
Wind_Direction
266 270 275 280 279 274 259 254 258 266 275 285 288 285 288 298 305 307 311 317 320 321 323 323 324 326 330 332 330 327 322 313 294 274 250 237 228 227 225 225 226 228 230 236
265 270 269 265 263 265 266 266 268 276 281 289 292 294 287 295 305 309 313 315 318 318 320 321 321 321 326 328 329 329 323 310 299 281 256 234 227 225 224 224 226 229 230 235
264 265 265 265 264 266 267 268 267 268 273 288 300 304 293 293 301 310 315 316 317 316 315 319 319 318 324 329 327 327 323 310 296 282 262 244 233 226 225 225 226 230 233 236
260 257 259 264 265 265 268 271 271 274 276 277 281 289 291 292 298 309 311 315 314 313 312 315 321 316 321 326 326 325 323 307 292 280 260 245 236 229 223 224 226 231 236 234
258 258 258 260 262 263 261 262 267 274 276 275 274 274 280 286 291 301 309 312 313 312 314 316 320 319 318 321 322 324 322 313 294 278 256 241 233 229 224 224 226 230 233 233
254 256 259 260 260 263 264 266 270 275 280 284 280 266 272 274 280 294 303 305 308 308 310 311 314 319 319 320 320 321 320 316 299 278 256 238 230 231 231 229 229 231 235 238
256 255 257 260 261 263 264 265 268 277 283 285 277 266 262 265 278 291 296 300 303 305 306 308 308 314 316 317 319 321 321 312 296 277 254 234 229 232 232 233 234 235 239 240
255 259 260 258 258 257 259 256 251 255 271 285 280 261 265 270 283 291 294 298 301 302 302 303 307 312 315 317 319 320 319 311 297 275 252 246 242 242 242 238 242 241 241 241
242 263 266 261 257 251 247 250 246 250 257 270 281 282 281 280 287 291 296 301 305 303 302 302 308 310 317 320 320 319 317 316 302 284 263 256 253 252 255 249 247 247 247 246
230 228 245 259 259 253 243 240 247 244 249 254 258 263 261 262 276 288 296 301 306 304 302 302 304 310 315 315 316 318 314 313 302 287 275 267 263 261 258 255 250 249 251 251
233 230 233 248 258 255 250 239 235 239 241 247 260 270 272 270 282 287 293 299 304 305 304 305 303 301 303 304 306 313 313 308 299 289 279 272 270 267 258 256 253 253 254 254
236 233 229 235 253 257 248 247 241 240 238 236 249 270 281 280 284 291 295 298 301 299 299 300 301 300 300 302 303 303 303 302 298 291 288 280 281 276 265 261 261 260 260 256
232 232 229 228 235 252 250 246 242 242 242 238 241 258 266 272 277 283 289 294 295 295 294 296 299 298 297 298 298 298 296 296 295 292 289 283 281 278 273 269 266 267 267 261
230 232 230 226 229 241 249 247 243 239 241 245 243 253 267 272 272 275 282 288 290 291 289 292 295 294 293 292 293 295 295 292 292 289 287 282 279 278 276 273 270 270 270 266
234 234 233 226 218 227 242 245 241 239 239 240 243 248 260 263 267 271 276 281 286 287 288 291 294 293 290 287 287 291 293 291 290 291 288 284 280 278 278 278 275 274 273 272
234 233 233 231 224 223 232 240 241 241 244 244 243 248 255 262 266 268 274 281 283 286 286 286 289 288 286 284 285 285 288 290 289 288 287 286 281 279 278 279 277 275 275 273
236 235 233 233 231 229 231 233 237 240 244 246 247 250 251 256 261 268 270 274 280 283 284 283 285 285 285 283 283 285 286 286 287 287 287 286 286 281 279 277 277 276 276 275
235 236 235 234 230 231 232 233 239 241 241 240 243 246 248 254 260 263 269 272 276 280 280 281 282 283 283 282 282 283 285 285 285 285 285 285 286 287 285 282 280 279 278 276
235 237 237 235 234 237 235 233 233 236 238 238 240 245 248 254 259 263 268 270 275 277 277 278 279 280 281 280 281 282 283 283 284 285 284 284 284 284 285 283 282 281 278 276
234 237 237 236 232 232 235 237 236 238 239 241 242 246 249 253 258 263 266 269 273 274 274 276 278 279 279 279 280 281 281 282 283 283 283 284 283 282 282 282 281 280 277 276
233 236 237 237 236 235 232 234 235 233 235 240 243 248 252 255 257 263 266 268 269 270 272 274 276 277 277 278 278 279 280 281 283 283 282 283 282 280 281 281 281 281 280 280
237 239 240 238 236 234 233 235 237 238 239 242 248 253 256 257 259 260 264 266 266 268 271 273 274 276 276 277 278 279 280 281 281 282 282 283 282 280 280 281 280 281 281 282
229 232 235 238 237 234 234 237 240 242 246 248 251 255 256 257 259 261 262 263 264 267 270 272 273 274 275 277 278 278 279 280 280 281 281 281 279 280 279 279 280 281 282 281
226 229 230 232 234 236 236 239 242 244 246 249 252 254 255 257 258 261 262 262 264 266 268 269 271 272 274 275 277 278 278 278 279 279 279 279 279 279 278 278 279 279 281 280
222 226 227 229 234 239 240 243 243 245 248 250 253 254 256 257 257 259 261 263 264 265 266 268 269 271 273 274 275 276 276 277 277 277 278 277 276 276 276 276 277 278 279 280
222 224 229 233 237 240 242 244 247 249 250 251 253 254 256 257 258 259 260 262 263 263 265 266 267 269 271 272 272 273 274 275 276 275 274 273 274 275 274 275 275 275 276 278
Height
5896 5898 5898 5899 5900 5901 5902 5903 5904 5904 5903 5901 5899 5898 5896 5895 5892 5889 5886 5884 5882 5881 5880 5877 5875 5873 5872 5870 5868 5867 5865 5865 5864 5865 5866 5868 5870 5872 5875 5877 5880 5883 5885 5887
5893 5895 5896 5896 5898 5898 5899 5900 5901 5902 5900 5898 5897 5895 5894 5892 5891 5888 5885 5883 5881 5880 5878 5876 5874 5873 5871 5869 5867 5866 5864 5863 5863 5863 5864 5866 5867 5870 5873 5875 5878 5881 5883 5885
5890 5893 5892 5893 5894 5895 5896 5897 5898 5898 5897 5896 5895 5894 5893 5890 5887 5886 5884 5882 5880 5878 5876 5875 5873 5872 5870 5868 5867 5865 5863 5861 5861 5861 5862 5864 5866 5868 5871 5874 5876 5879 5881 5883
5886 5888 5889 5890 5891 5892 5893 5894 5894 5894 5894 5894 5894 5893 5891 5887 5883 5883 5882 5880 5879 5877 5873 5872 5871 5870 5869 5868 5866 5864 5862 5860 5860 5860 5861 5862 5864 5866 5869 5872 5874 5876 5879 5881
5882 5883 5885 5886 5888 5888 5890 5890 5891 5890 5890 5890 5891 5891 5891 5886 5882 5880 5880 5879 5877 5875 5873 5871 5870 5869 5868 5867 5865 5863 5861 5859 5859 5859 5860 5861 5863 5865 5867 5870 5872 5874 5876 5878
5877 5879 5880 5882 5883 5884 5885 5886 5887 5887 5887 5888 5889 5889 5887 5885 5882 5879 5878 5877 5876 5874 5872 5871 5870 5868 5867 5866 5864 5862 5861 5859 5858 5858 5859 5860 5862 5864 5866 5868 5870 5872 5874 5876
5873 5874 5876 5877 5879 5880 5882 5883 5884 5884 5885 5885 5885 5885 5885 5882 5881 5879 5877 5875 5874 5873 5871 5869 5869 5867 5866 5865 5863 5861 5860 5858 5857 5858 5858 5859 5861 5863 5865 5866 5868 5870 5872 5874
5867 5870 5871 5873 5875 5876 5877 5879 5881 5883 5883 5881 5880 5881 5881 5878 5878 5877 5875 5873 5872 5871 5869 5867 5866 5865 5864 5863 5862 5860 5859 5857 5857 5857 5858 5859 5860 5862 5863 5865 5866 5868 5869 5871
5865 5868 5868 5868 5870 5872 5873 5875 5878 5880 5880 5881 5880 5880 5878 5875 5874 5874 5872 5870 5869 5868 5866 5864 5865 5864 5863 5862 5861 5859 5858 5857 5856 5856 5857 5858 5859 5861 5862 5863 5864 5865 5867 5868
5859 5863 5865 5864 5865 5867 5869 5872 5874 5875 5876 5877 5878 5877 5875 5870 5870 5870 5869 5868 5867 5866 5865 5864 5863 5861 5861 5861 5860 5859 5857 5856 5856 5856 5856 5857 5858 5859 5859 5860 5861 5862 5864 5865
5853 5856 5860 5861 5860 5863 5865 5867 5868 5871 5873 5874 5874 5874 5869 5868 5867 5866 5865 5865 5864 5863 5863 5862 5861 5861 5860 5859 5859 5858 5856 5856 5855 5855 5855 5855 5856 5857 5857 5858 5859 5860 5861 5862
5847 5850 5853 5857 5858 5858 5861 5862 5864 5866 5867 5869 5870 5872 5865 5865 5864 5863 5863 5863 5862 5861 5861 5860 5859 5859 5858 5857 5857 5856 5855 5854 5854 5854 5853 5853 5853 5854 5855 5855 5856 5856 5857 5858
5840 5843 5847 5851 5856 5855 5856 5858 5860 5862 5863 5865 5867 5869 5864 5862 5862 5861 5860 5860 5860 5859 5858 5858 5857 5856 5856 5855 5854 5854 5853 5852 5852 5852 5852 5852 5852 5852 5852 5852 5853 5853 5853 5854
5833 5836 5841 5847 5851 5852 5852 5854 5856 5858 5859 5861 5863 5863 5860 5858 5858 5857 5856 5857 5857 5857 5856 5855 5854 5853 5853 5852 5852 5851 5851 5850 5850 5849 5849 5849 5849 5849 5849 5849 5849 5850 5850 5850
5825 5829 5833 5838 5842 5845 5847 5848 5850 5852 5854 5857 5858 5858 5856 5853 5854 5852 5852 5853 5854 5853 5853 5852 5850 5849 5850 5850 5849 5848 5848 5847 5847 5846 5846 5846 5845 5845 5845 5846 5846 5846 5846 5846
5817 5821 5825 5830 5835 5839 5841 5844 5846 5848 5850 5851 5852 5852 5850 5848 5848 5848 5847 5848 5849 5849 5849 5848 5848 5847 5847 5846 5846 5845 5845 5844 5844 5843 5843 5842 5842 5842 5842 5842 5842 5842 5842 5842
5808 5814 5818 5822 5828 5832 5834 5838 5841 5843 5845 5846 5847 5847 5844 5842 5843 5843 5843 5844 5845 5845 5845 5845 5844 5844 5843 5843 5842 5842 5841 5841 5840 5840 5839 5839 5838 5838 5837 5837 5838 5838 5838 5838
5801 5805 5810 5815 5821 5822 5830 5833 5835 5837 5838 5840 5840 5839 5838 5837 5837 5837 5839 5840 5840 5840 5840 5840 5839 5839 5839 5838 5838 5837 5837 5837 5836 5836 5835 5834 5834 5834 5833 5833 5833 5833 5833 5833
5793 5797 5802 5807 5811 5815 5821 5824 5827 5829 5830 5831 5832 5831 5831 5831 5832 5833 5835 5835 5834 5834 5835 5835 5834 5834 5834 5834 5833 5833 5832 5832 5831 5831 5830 5829 5829 5829 5828 5828 5827 5827 5827 5827
5785 5788 5794 5799 5803 5809 5815 5816 5818 5821 5822 5823 5824 5823 5824 5826 5826 5827 5828 5828 5828 5828 5828 5829 5829 5829 5828 5828 5828 5828 5827 5827 5826 5825 5825 5824 5823 5823 5823 5822 5822 5822 5821 5821
5776 5780 5784 5790 5794 5800 5805 5806 5808 5812 5813 5813 5815 5815 5816 5818 5819 5820 5821 5822 5822 5822 5822 5822 5823 5823 5823 5822 5822 5822 5821 5821 5820 5819 5819 5818 5818 5817 5817 5817 5816 5816 5815 5815
5768 5772 5776 5782 5786 5793 5794 5796 5798 5799 5802 5805 5806 5808 5810 5811 5811 5812 5814 5815 5815 5815 5815 5816 5816 5816 5816 5816 5816 5816 5815 5815 5814 5814 5813 5813 5812 5812 5811 5811 5811 5810 5810 5809
5760 5765 5769 5773 5778 5779 5783 5786 5788 5791 5795 5797 5799 5801 5802 5803 5804 5805 5805 5806 5807 5808 5809 5809 5809 5809 5809 5809 5809 5809 5809 5808 5808 5807 5807 5806 5806 5805 5804 5804 5804 5804 5804 5803
5752 5756 5760 5763 5765 5768 5772 5776 5779 5782 5786 5789 5791 5792 5794 5794 5795 5796 5797 5798 5799 5800 5801 5801 5802 5802 5802 5802 5802 5802 5801 5801 5801 5800 5800 5799 5799 5799 5798 5798 5798 5798 5798 5797
5743 5747 5751 5754 5757 5759 5763 5767 5770 5773 5776 5779 5782 5783 5785 5786 5787 5788 5788 5789 5791 5792 5792 5793 5793 5794 5794 5794 5794 5794 5794 5793 5793 5793 5792 5792 5792 5792 5792 5791 5791 5791 5791 5790
5735 5739 5743 5745 5747 5751 5755 5758 5761 5765 5767 5770 5772 5774 5776 5777 5778 5780 5780 5781 5782 5783 5784 5784 5785 5785 5785 5785 5786 5786 5785 5785 5785 5785 5785 5785 5784 5784 5784 5784 5784 5783 5783 5783